Regional Weather Roundup
Issued by NWS New Orleans/Baton Rouge, LA

Home | Current Version | Previous Version | Text Only | Print | Product List | Glossary On
Versions: 1 2 3 4 5 6 7 8 9 10 11 12 13 14 15 16 17 18 19 20 21 22 23 24 25 26 27 28 29 30 31 32 33 34 35 36 37 38 39 40 41 42 43 44 45 46 47 48 49 50
539
ASUS44 KLIX 012105
RWRLIX
NEW ORLEANS REGIONAL WEATHER ROUNDUP
NATIONAL WEATHER SERVICE NEW ORLEANS LA
400 PM CDT FRI AUG 01 2014

NOTE: "FAIR" INDICATES FEW OR NO CLOUDS BELOW 12,000 FEET WITH NO
      SIGNIFICANT WEATHER AND/OR OBSTRUCTIONS TO VISIBILITY.
      SKY/WX - SKY CONDITION AND SIGNIFICANT WEATHER.
      TMP - AIR TEMPERATURE.     DP    - DEWPOINT TEMPERATURE.
      RH  - RELATIVE HUMIDITY.   PRES  - PRESSURE.
      HI  - HEAT INDEX.          WCI   - WIND CHILL INDEX.

*  THESE STATIONS ARE NOT NWS OR FAA STATIONS AND ARE NOT UNDER
   NWS QUALITY CONTROL.

LAZ038-040-048-061>063-065>067-069-012200-
SOUTHEAST LOUISIANA

CITY           SKY/WX    TMP DP  RH WIND       PRES   REMARKS
N.O. AUDUBON     N/A     90  67  47 MISG        N/A
N.O. INTL ARPT CLOUDY    85  67  54 S9        29.98F
N.O. LAKEFRONT CLOUDY    85  69  58 E7        29.99F
N.O. DOWNTOWN* MOCLDY    88  66  48 SE7       29.98F
SLIDELL        CLOUDY    83  71  67 NE7       29.98F
BATON ROUGE    CLOUDY    77  74  90 S12       29.98F
BOOTHVILLE     PTSUNNY   86  70  58 NE5       30.00S
BELLE CHASSE   CLOUDY    85  66  53 S7        29.98F
BOGALUSA*        N/A     82  68  62 NE5       30.02S
GALLIANO*      NOT AVBL
NEW ROADS*     CLOUDY    79  76  90 SE8       29.97F
GONZALES*      LGT RAIN  78  77  96 W3        29.98F
HAMMOND*       LGT RAIN  82  70  65 SE3       30.00S
HOUMA*         CLOUDY    86  64  48 SE3       29.98F
PORT FOURCHON* CLEAR     86  68  54 S5        30.00F

$$

MSZ070-080>082-012200-
SOUTHERN MISSISSIPPI

CITY           SKY/WX    TMP DP  RH WIND       PRES   REMARKS
MCCOMB         LGT RAIN  75  71  87 E3        30.01F
GULFPORT       PTSUNNY   88  65  46 CALM      29.99S
BILOXI         CLOUDY    83  67  58 N5        29.99S
PASCAGOULA     CLOUDY    84  71  65 VRB5      29.99S
STENNIS ARPT*  SUNNY    N/A N/A N/A VRB5      29.99S

$$

COASTAL OBSERVATIONS
LAKE AND NEARSHORE STATIONS

STATION/POSITION TIME  TEMP    WIND        PRES    WAVE
                       AIR SEA DIR/SP/G            HT/PER
                 (UTC) (F)     (DEG/KT/KT) (MB)    (FT/S)
PASCAGOULA       2100   83     200/  5/  8 1015.1
WAVELAND YACHT   2100   82     160/  5/  6 1015.2
GRAND ISLE       2100   83 86  150/  4/  6 1016.3
SOUTHWEST PASS   2100   92 86  140/  1/  3 1016.1
NEW CANAL        2100   85 83   80/  4/  6 1015.7
SHELL BEACH      2100   83 82  360/  4/  4 1015.4

OFFSHORE STATIONS

STATION/POSITION TIME  TEMP    WIND        PRES    WAVE
                       AIR SEA DIR/SP/G            HT/PER
                 (UTC) (F)     (DEG/KT/KT) (MB)    (FT/S)
64 S DAUPHIN ISL 2025   82 87  340/  2/  4 1015.4

$$




USA.gov is the U.S. government's official web portal to all federal, state and local government web resources and services.